Location: Newark
(36.0797°N, 3.9744°E)
Time: 08:35:08
(UTC+00:00)

Vanguard 1 Rocket - All Passes

Search period start: 10 December 2019 00:00
Search period end: 20 December 2019 00:00
Orbit: 650 x 4226 km, 34.3° (Epoch: 09 December)

Date Brightness Start Highest point End Pass type
(mag) Time Alt. Az. Time Alt. Az. Time Alt. Az.
10 Dec - 01:04:47 10° W 01:13:24 60° SSW 01:18:27 10° ESE night (unlit)
10 Dec - 03:35:07 10° WSW 03:37:13 12° SW 03:39:09 10° SSW visible
10 Dec - 16:22:18 10° S 16:36:43 19° SE 16:48:16 10° ESE daylight
10 Dec - 18:45:52 10° SW 19:06:49 45° SSE 19:18:59 10° E visible
10 Dec - 21:17:38 10° WSW 21:35:28 73° SSE 21:44:15 10° E visible
10 Dec - 23:50:43 10° W 00:02:16 77° S 00:08:16 10° ESE night (unlit)
11 Dec - 02:21:09 10° W 02:26:52 28° SW 02:30:55 10° SSE night (unlit)
11 Dec - 15:20:42 10° SE 15:22:45 10° SE 15:24:47 10° SE daylight
11 Dec - 17:32:35 10° SSW 17:53:11 35° SSE 18:06:50 10° E visible
11 Dec - 20:02:05 10° SW 20:22:47 64° SSE 20:33:28 10° E visible
11 Dec - 22:35:42 10° W 22:50:36 82° S 22:57:55 10° E visible
12 Dec - 01:07:37 10° W 01:16:17 50° SSW 01:21:22 10° SE night (unlit)
12 Dec - 16:21:03 10° S 16:39:17 25° SE 16:53:15 10° E daylight
12 Dec - 18:47:06 10° SW 19:09:30 54° SSE 19:22:15 10° E visible
12 Dec - 21:19:59 10° WSW 21:38:23 79° S 21:47:22 10° E visible
12 Dec - 23:53:26 10° W 00:05:14 71° SSW 00:11:21 10° ESE visible
13 Dec - 02:24:30 10° W 02:29:29 21° SW 02:33:13 10° S night (unlit)
13 Dec - 15:12:42 10° SSE 15:25:20 16° SE 15:36:29 10° ESE daylight
13 Dec - 17:33:12 10° SSW 17:55:44 43° SSE 18:10:22 10° E visible
13 Dec - 20:04:04 10° WSW 20:25:35 72° SSE 20:36:35 10° E visible
13 Dec - 22:38:19 10° W 22:53:35 81° S 23:01:03 10° E visible
14 Dec - 01:10:31 10° W 01:19:03 41° SSW 01:24:10 10° SE night (unlit)
14 Dec - 16:20:50 10° SSW 16:41:43 33° SE 16:57:23 10° E visible
14 Dec - 18:48:39 10° SW 19:12:10 62° SSE 19:25:24 10° E visible
14 Dec - 21:22:26 10° W 21:41:18 82° S 21:50:30 10° E visible
14 Dec - 23:56:09 10° W 00:08:07 63° SSW 00:14:21 10° ESE visible
15 Dec - 02:28:18 10° WSW 02:31:59 15° SW 02:34:58 10° S night (unlit)
15 Dec - 15:10:40 10° S 15:27:41 22° SE 15:42:20 10° E daylight
15 Dec - 17:34:16 10° SW 17:58:14 51° SSE 18:13:39 10° E visible
15 Dec - 20:06:15 10° WSW 20:28:22 78° SSE 20:39:41 10° E visible
15 Dec - 22:40:57 10° W 22:56:32 78° S 23:04:09 10° ESE visible
16 Dec - 01:13:30 10° W 01:21:42 32° SW 01:26:46 10° SSE night (unlit)
16 Dec - 14:05:49 10° SSE 14:13:50 12° SE 14:21:35 10° ESE daylight
16 Dec - 16:21:17 10° SSW 16:44:02 40° SE 17:01:00 10° E visible
16 Dec - 18:50:29 10° WSW 19:14:48 69° SSE 19:28:30 10° E visible
16 Dec - 21:24:57 10° W 21:44:13 83° S 21:53:37 10° E visible
16 Dec - 23:58:51 10° W 00:10:55 54° SSW 00:17:17 10° SE visible
17 Dec - 15:10:07 10° S 15:29:53 29° SE 15:46:51 10° E daylight
17 Dec - 17:35:41 10° SW 18:00:42 59° SSE 18:16:48 10° E visible
17 Dec - 20:08:36 10° WSW 20:31:12 82° S 20:42:46 10° E visible
17 Dec - 22:43:33 10° W 22:59:25 73° SSW 23:07:12 10° ESE visible
18 Dec - 01:16:38 10° W 01:24:11 25° SW 01:29:05 10° S night (unlit)
18 Dec - 14:01:50 10° SSE 14:16:00 18° SE 14:29:36 10° E daylight
18 Dec - 16:22:14 10° SSW 16:46:17 47° SSE 17:04:21 10° E visible
18 Dec - 18:52:32 10° WSW 19:17:28 75° SSE 19:31:33 10° E visible
18 Dec - 21:27:30 10° W 21:47:07 82° S 21:56:42 10° E visible
19 Dec - 00:01:36 10° W 00:13:33 45° SSW 00:20:02 10° SE visible
19 Dec - 15:10:23 10° SSW 15:31:58 36° SE 15:50:40 10° E daylight
19 Dec - 17:37:25 10° SW 18:03:09 66° SSE 18:19:51 10° E visible
19 Dec - 20:11:02 10° W 20:34:01 84° S 20:45:51 10° E visible
19 Dec - 22:46:09 10° W 23:02:12 66° SSW 23:10:11 10° ESE visible
